contact:dominique.lefevre@mio.osupytheas.fr, maurice.libes@osupytheas.fr, didier.mallarino@osupytheas.fr
Project:EMSO http://www.emso-fr.org/EMSO-France
Depth: 2436.0 m
Title:EMSO Ligure Ouest : Data MII capteur MICROCAT
DateTime_Computer,Latitude,Longitude,Temperature,Conductivity,Pressure,DateTime_Instrument
DateTime_Computer,Latitude,Longitude,degC,S m-1,dbar,DateTime_Instrument
2023-01-29T00:01:14Z,42.805,6.029,13.3024,4.60072,2470.707,2023-1-29T02:07:42Z
2023-01-29T00:04:17Z,42.805,6.029,13.3023,4.60073,2470.661,2023-1-29T02:10:46Z
2023-01-29T00:07:20Z,42.805,6.029,13.3019,4.60072,2470.637,2023-1-29T02:13:49Z
2023-01-29T00:10:23Z,42.805,6.029,13.3016,4.60072,2470.67,2023-1-29T02:16:52Z
2023-01-29T00:13:26Z,42.805,6.029,13.3021,4.60073,2470.646,2023-1-29T02:19:55Z
2023-01-29T00:16:29Z,42.805,6.029,13.3016,4.60072,2470.646,2023-1-29T02:22:58Z
2023-01-29T00:19:32Z,42.805,6.029,13.3021,4.60072,2470.684,2023-1-29T02:26:01Z
2023-01-29T00:22:36Z,42.805,6.029,13.3019,4.60072,2470.684,2023-1-29T02:29:04Z
2023-01-29T00:25:39Z,42.805,6.029,13.3020,4.60072,2470.693,2023-1-29T02:32:07Z
2023-01-29T00:28:42Z,42.805,6.029,13.3019,4.60071,2470.693,2023-1-29T02:35:10Z
2023-01-29T00:31:45Z,42.805,6.029,13.3020,4.60072,2470.684,2023-1-29T02:38:13Z
2023-01-29T00:34:48Z,42.805,6.029,13.3017,4.60072,2470.67,2023-1-29T02:41:16Z
2023-01-29T00:37:51Z,42.805,6.029,13.3020,4.60072,2470.67,2023-1-29T02:44:19Z
2023-01-29T00:40:54Z,42.805,6.029,13.3022,4.60072,2470.717,2023-1-29T02:47:23Z
2023-01-29T00:43:57Z,42.805,6.029,13.3017,4.60070,2470.684,2023-1-29T02:50:26Z
2023-01-29T00:47:00Z,42.805,6.029,13.3020,4.60073,2470.67,2023-1-29T02:53:29Z
2023-01-29T00:50:03Z,42.805,6.029,13.3013,4.60070,2470.67,2023-1-29T02:56:32Z
2023-01-29T00:53:06Z,42.805,6.029,13.3019,4.60070,2470.693,2023-1-29T02:59:35Z
2023-01-29T00:56:10Z,42.805,6.029,13.3015,4.60071,2470.67,2023-1-29T03:02:38Z
2023-01-29T00:59:13Z,42.805,6.029,13.3018,4.60072,2470.693,2023-1-29T03:05:41Z
2023-01-29T01:02:16Z,42.805,6.029,13.3016,4.60070,2470.67,2023-1-29T03:08:44Z
2023-01-29T01:05:19Z,42.805,6.029,13.3021,4.60070,2470.67,2023-1-29T03:11:47Z
2023-01-29T01:08:22Z,42.805,6.029,13.3019,4.60071,2470.684,2023-1-29T03:14:50Z
2023-01-29T01:11:25Z,42.805,6.029,13.3018,4.60072,2470.684,2023-1-29T03:17:53Z
2023-01-29T01:14:28Z,42.805,6.029,13.3023,4.60069,2470.646,2023-1-29T03:20:57Z
2023-01-29T01:17:31Z,42.805,6.029,13.3015,4.60070,2470.684,2023-1-29T03:24:00Z
2023-01-29T01:20:34Z,42.805,6.029,13.3014,4.60071,2470.67,2023-1-29T03:27:03Z
2023-01-29T01:23:37Z,42.805,6.029,13.3019,4.60072,2470.684,2023-1-29T03:30:06Z
2023-01-29T01:26:40Z,42.805,6.029,13.3015,4.60070,2470.646,2023-1-29T03:33:09Z
2023-01-29T01:29:43Z,42.805,6.029,13.3019,4.60070,2470.661,2023-1-29T03:36:12Z
2023-01-29T01:32:47Z,42.805,6.029,13.3021,4.60070,2470.646,2023-1-29T03:39:15Z
2023-01-29T01:35:50Z,42.805,6.029,13.3023,4.60070,2470.661,2023-1-29T03:42:18Z
2023-01-29T01:38:53Z,42.805,6.029,13.3021,4.60069,2470.661,2023-1-29T03:45:21Z
2023-01-29T01:41:56Z,42.805,6.029,13.3019,4.60070,2470.684,2023-1-29T03:48:24Z
2023-01-29T01:44:59Z,42.805,6.029,13.3019,4.60069,2470.67,2023-1-29T03:51:27Z
2023-01-29T01:48:02Z,42.805,6.029,13.3020,4.60070,2470.646,2023-1-29T03:54:31Z
2023-01-29T01:51:05Z,42.805,6.029,13.3019,4.60072,2470.661,2023-1-29T03:57:34Z
2023-01-29T01:54:08Z,42.805,6.029,13.3016,4.60069,2470.67,2023-1-29T04:00:37Z
2023-01-29T01:57:11Z,42.805,6.029,13.3020,4.60070,2470.646,2023-1-29T04:03:40Z
2023-01-29T02:00:14Z,42.805,6.029,13.3018,4.60070,2470.646,2023-1-29T04:06:43Z
2023-01-29T02:03:17Z,42.805,6.029,13.3021,4.60072,2470.646,2023-1-29T04:09:46Z
2023-01-29T02:06:20Z,42.805,6.029,13.3017,4.60070,2470.67,2023-1-29T04:12:49Z
2023-01-29T02:09:24Z,42.805,6.029,13.3019,4.60070,2470.67,2023-1-29T04:15:52Z
2023-01-29T02:12:27Z,42.805,6.029,13.3020,4.60071,2470.67,2023-1-29T04:18:55Z
2023-01-29T02:15:30Z,42.805,6.029,13.3018,4.60070,2470.624,2023-1-29T04:21:58Z
2023-01-29T02:18:33Z,42.805,6.029,13.3019,4.60069,2470.67,2023-1-29T04:25:01Z
2023-01-29T02:21:36Z,42.805,6.029,13.3019,4.60070,2470.661,2023-1-29T04:28:04Z
2023-01-29T02:24:39Z,42.805,6.029,13.3015,4.60070,2470.684,2023-1-29T04:31:08Z
2023-01-29T02:27:42Z,42.805,6.029,13.3017,4.60069,2470.67,2023-1-29T04:34:11Z
2023-01-29T02:30:45Z,42.805,6.029,13.3017,4.60071,2470.684,2023-1-29T04:37:14Z
2023-01-29T02:33:48Z,42.805,6.029,13.3019,4.60072,2470.646,2023-1-29T04:40:17Z
2023-01-29T02:36:51Z,42.805,6.029,13.3020,4.60072,2470.646,2023-1-29T04:43:20Z
2023-01-29T02:39:54Z,42.805,6.029,13.3021,4.60070,2470.646,2023-1-29T04:46:23Z
2023-01-29T02:42:57Z,42.805,6.029,13.3021,4.60070,2470.684,2023-1-29T04:49:26Z
2023-01-29T02:46:01Z,42.805,6.029,13.3024,4.60071,2470.624,2023-1-29T04:52:29Z
2023-01-29T02:49:04Z,42.805,6.029,13.3019,4.60071,2470.624,2023-1-29T04:55:32Z
2023-01-29T02:52:07Z,42.805,6.029,13.3017,4.60070,2470.624,2023-1-29T04:58:35Z
2023-01-29T02:55:10Z,42.805,6.029,13.3020,4.60070,2470.661,2023-1-29T05:01:38Z
2023-01-29T02:58:13Z,42.805,6.029,13.3021,4.60069,2470.646,2023-1-29T05:04:42Z
2023-01-29T03:01:16Z,42.805,6.029,13.3016,4.60070,2470.646,2023-1-29T05:07:45Z
2023-01-29T03:04:19Z,42.805,6.029,13.3017,4.60071,2470.637,2023-1-29T05:10:48Z
2023-01-29T03:07:22Z,42.805,6.029,13.3019,4.60072,2470.67,2023-1-29T05:13:51Z
2023-01-29T03:10:25Z,42.805,6.029,13.3019,4.60070,2470.637,2023-1-29T05:16:54Z
2023-01-29T03:13:28Z,42.805,6.029,13.3020,4.60072,2470.624,2023-1-29T05:19:57Z
2023-01-29T03:16:31Z,42.805,6.029,13.3015,4.60070,2470.646,2023-1-29T05:23:00Z
2023-01-29T03:19:35Z,42.805,6.029,13.3021,4.60070,2470.646,2023-1-29T05:26:03Z
2023-01-29T03:22:38Z,42.805,6.029,13.3023,4.60069,2470.67,2023-1-29T05:29:06Z
2023-01-29T03:25:41Z,42.805,6.029,13.3021,4.60070,2470.661,2023-1-29T05:32:09Z
2023-01-29T03:28:44Z,42.805,6.029,13.3021,4.60070,2470.661,2023-1-29T05:35:12Z
2023-01-29T03:31:47Z,42.805,6.029,13.3020,4.60072,2470.661,2023-1-29T05:38:15Z
2023-01-29T03:34:50Z,42.805,6.029,13.3022,4.60072,2470.661,2023-1-29T05:41:19Z
2023-01-29T03:37:53Z,42.805,6.029,13.3015,4.60069,2470.624,2023-1-29T05:44:22Z
2023-01-29T03:40:56Z,42.805,6.029,13.3020,4.60070,2470.67,2023-1-29T05:47:25Z
2023-01-29T03:43:59Z,42.805,6.029,13.3021,4.60074,2470.646,2023-1-29T05:50:28Z
2023-01-29T03:47:02Z,42.805,6.029,13.3017,4.60070,2470.646,2023-1-29T05:53:31Z
2023-01-29T03:50:05Z,42.805,6.029,13.3017,4.60069,2470.624,2023-1-29T05:56:34Z
2023-01-29T03:53:08Z,42.805,6.029,13.3019,4.60069,2470.646,2023-1-29T05:59:37Z
2023-01-29T03:56:12Z,42.805,6.029,13.3019,4.60072,2470.637,2023-1-29T06:02:40Z
2023-01-29T03:59:15Z,42.805,6.029,13.3020,4.60071,2470.646,2023-1-29T06:05:43Z
2023-01-29T04:02:18Z,42.805,6.029,13.3014,4.60069,2470.646,2023-1-29T06:08:46Z
2023-01-29T04:05:21Z,42.805,6.029,13.3019,4.60069,2470.661,2023-1-29T06:11:49Z
2023-01-29T04:08:24Z,42.805,6.029,13.3018,4.60070,2470.684,2023-1-29T06:14:53Z
2023-01-29T04:11:27Z,42.805,6.029,13.3018,4.60072,2470.61,2023-1-29T06:17:56Z
2023-01-29T04:14:30Z,42.805,6.029,13.3020,4.60069,2470.646,2023-1-29T06:20:59Z
2023-01-29T04:17:33Z,42.805,6.029,13.3018,4.60072,2470.646,2023-1-29T06:24:02Z
2023-01-29T04:20:36Z,42.805,6.029,13.3022,4.60069,2470.624,2023-1-29T06:27:05Z
2023-01-29T04:23:39Z,42.805,6.029,13.3019,4.60070,2470.646,2023-1-29T06:30:08Z
2023-01-29T04:26:42Z,42.805,6.029,13.3019,4.60071,2470.637,2023-1-29T06:33:11Z
2023-01-29T04:29:45Z,42.805,6.029,13.3021,4.60071,2470.637,2023-1-29T06:36:14Z
2023-01-29T04:32:49Z,42.805,6.029,13.3023,4.60070,2470.637,2023-1-29T06:39:17Z
2023-01-29T04:35:52Z,42.805,6.029,13.3018,4.60072,2470.661,2023-1-29T06:42:20Z
2023-01-29T04:38:55Z,42.805,6.029,13.3018,4.60069,2470.661,2023-1-29T06:45:23Z
2023-01-29T04:41:58Z,42.805,6.029,13.3014,4.60070,2470.637,2023-1-29T06:48:26Z
2023-01-29T04:45:01Z,42.805,6.029,13.3016,4.60070,2470.661,2023-1-29T06:51:30Z
2023-01-29T04:48:04Z,42.805,6.029,13.3019,4.60071,2470.661,2023-1-29T06:54:33Z
2023-01-29T04:51:07Z,42.805,6.029,13.3019,4.60069,2470.624,2023-1-29T06:57:36Z
2023-01-29T04:54:10Z,42.805,6.029,13.3016,4.60069,2470.61,2023-1-29T07:00:39Z
2023-01-29T04:57:13Z,42.805,6.029,13.3018,4.60069,2470.646,2023-1-29T07:03:42Z
2023-01-29T05:00:16Z,42.805,6.029,13.3018,4.60072,2470.67,2023-1-29T07:06:45Z
2023-01-29T05:03:19Z,42.805,6.029,13.3019,4.60070,2470.624,2023-1-29T07:09:48Z
2023-01-29T05:06:22Z,42.805,6.029,13.3016,4.60072,2470.646,2023-1-29T07:12:51Z
2023-01-29T05:09:26Z,42.805,6.029,13.3024,4.60072,2470.637,2023-1-29T07:15:54Z
2023-01-29T05:12:29Z,42.805,6.029,13.3021,4.60072,2470.661,2023-1-29T07:18:57Z
2023-01-29T05:15:32Z,42.805,6.029,13.3017,4.60072,2470.6,2023-1-29T07:22:00Z
2023-01-29T05:18:35Z,42.805,6.029,13.3017,4.60072,2470.661,2023-1-29T07:25:03Z
2023-01-29T05:21:38Z,42.805,6.029,13.3019,4.60071,2470.637,2023-1-29T07:28:07Z
2023-01-29T05:24:41Z,42.805,6.029,13.3021,4.60072,2470.624,2023-1-29T07:31:10Z
2023-01-29T05:27:44Z,42.805,6.029,13.3020,4.60072,2470.637,2023-1-29T07:34:13Z
2023-01-29T05:30:47Z,42.805,6.029,13.3020,4.60072,2470.67,2023-1-29T07:37:16Z
2023-01-29T05:33:50Z,42.805,6.029,13.3019,4.60072,2470.637,2023-1-29T07:40:19Z
2023-01-29T05:36:53Z,42.805,6.029,13.3020,4.60072,2470.637,2023-1-29T07:43:22Z
2023-01-29T05:39:56Z,42.805,6.029,13.3021,4.60072,2470.646,2023-1-29T07:46:25Z
2023-01-29T05:43:00Z,42.805,6.029,13.3017,4.60072,2470.637,2023-1-29T07:49:28Z
2023-01-29T05:46:03Z,42.805,6.029,13.3018,4.60073,2470.646,2023-1-29T07:52:31Z
2023-01-29T05:49:06Z,42.805,6.029,13.3019,4.60072,2470.646,2023-1-29T07:55:34Z
2023-01-29T05:52:09Z,42.805,6.029,13.3019,4.60072,2470.624,2023-1-29T07:58:37Z
2023-01-29T05:55:12Z,42.805,6.029,13.3017,4.60072,2470.624,2023-1-29T08:01:41Z
2023-01-29T05:58:15Z,42.805,6.029,13.3019,4.60072,2470.646,2023-1-29T08:04:44Z
2023-01-29T06:01:18Z,42.805,6.029,13.3019,4.60072,2470.614,2023-1-29T08:07:47Z
2023-01-29T06:04:21Z,42.805,6.029,13.3021,4.60075,2470.624,2023-1-29T08:10:50Z
2023-01-29T06:07:24Z,42.805,6.029,13.3023,4.60073,2470.6,2023-1-29T08:13:53Z
2023-01-29T06:10:27Z,42.805,6.029,13.3021,4.60075,2470.661,2023-1-29T08:16:56Z
2023-01-29T06:13:30Z,42.805,6.029,13.3021,4.60074,2470.637,2023-1-29T08:19:59Z
2023-01-29T06:16:33Z,42.805,6.029,13.3021,4.60073,2470.6,2023-1-29T08:23:02Z
2023-01-29T06:19:37Z,42.805,6.029,13.3017,4.60072,2470.624,2023-1-29T08:26:05Z
2023-01-29T06:22:40Z,42.805,6.029,13.3019,4.60072,2470.624,2023-1-29T08:29:08Z
2023-01-29T06:25:43Z,42.805,6.029,13.3019,4.60075,2470.637,2023-1-29T08:32:11Z
2023-01-29T06:28:46Z,42.805,6.029,13.3022,4.60073,2470.614,2023-1-29T08:35:14Z
2023-01-29T06:31:49Z,42.805,6.029,13.3024,4.60074,2470.6,2023-1-29T08:38:18Z
2023-01-29T06:34:52Z,42.805,6.029,13.3023,4.60077,2470.614,2023-1-29T08:41:21Z
2023-01-29T06:37:55Z,42.805,6.029,13.3024,4.60074,2470.6,2023-1-29T08:44:24Z
2023-01-29T06:40:58Z,42.805,6.029,13.3021,4.60074,2470.661,2023-1-29T08:47:27Z
2023-01-29T06:44:01Z,42.805,6.029,13.3021,4.60074,2470.624,2023-1-29T08:50:30Z
2023-01-29T06:47:04Z,42.805,6.029,13.3020,4.60076,2470.661,2023-1-29T08:53:33Z
2023-01-29T06:50:07Z,42.805,6.029,13.3024,4.60075,2470.624,2023-1-29T08:56:36Z
2023-01-29T06:53:10Z,42.805,6.029,13.3023,4.60075,2470.637,2023-1-29T08:59:39Z
2023-01-29T06:56:14Z,42.805,6.029,13.3023,4.60075,2470.624,2023-1-29T09:02:42Z
2023-01-29T06:59:17Z,42.805,6.029,13.3020,4.60074,2470.624,2023-1-29T09:05:45Z
2023-01-29T07:02:20Z,42.805,6.029,13.3020,4.60075,2470.624,2023-1-29T09:08:48Z
2023-01-29T07:05:23Z,42.805,6.029,13.3023,4.60074,2470.6,2023-1-29T09:11:52Z
2023-01-29T07:08:26Z,42.805,6.029,13.3026,4.60075,2470.646,2023-1-29T09:14:55Z
2023-01-29T07:11:29Z,42.805,6.029,13.3024,4.60075,2470.646,2023-1-29T09:17:58Z
2023-01-29T07:14:32Z,42.805,6.029,13.3023,4.60075,2470.624,2023-1-29T09:21:01Z
2023-01-29T07:17:35Z,42.805,6.029,13.3019,4.60074,2470.6,2023-1-29T09:24:04Z
2023-01-29T07:20:38Z,42.805,6.029,13.3020,4.60076,2470.624,2023-1-29T09:27:07Z
2023-01-29T07:23:41Z,42.805,6.029,13.3024,4.60074,2470.637,2023-1-29T09:30:10Z
2023-01-29T07:26:44Z,42.805,6.029,13.3022,4.60075,2470.6,2023-1-29T09:33:13Z
2023-01-29T07:29:47Z,42.805,6.029,13.3024,4.60076,2470.637,2023-1-29T09:36:16Z
2023-01-29T07:32:51Z,42.805,6.029,13.3024,4.60074,2470.624,2023-1-29T09:39:19Z
2023-01-29T07:35:54Z,42.805,6.029,13.3025,4.60077,2470.646,2023-1-29T09:42:22Z
2023-01-29T07:38:57Z,42.805,6.029,13.3023,4.60077,2470.624,2023-1-29T09:45:25Z
2023-01-29T07:42:00Z,42.805,6.029,13.3021,4.60077,2470.624,2023-1-29T09:48:29Z
2023-01-29T07:45:03Z,42.805,6.029,13.3020,4.60077,2470.614,2023-1-29T09:51:32Z
2023-01-29T07:48:06Z,42.805,6.029,13.3026,4.60076,2470.637,2023-1-29T09:54:35Z
2023-01-29T07:51:09Z,42.805,6.029,13.3021,4.60076,2470.637,2023-1-29T09:57:38Z
2023-01-29T07:54:12Z,42.805,6.029,13.3023,4.60077,2470.637,2023-1-29T10:00:41Z
2023-01-29T07:57:15Z,42.805,6.029,13.3019,4.60076,2470.661,2023-1-29T10:03:44Z
2023-01-29T08:00:18Z,42.805,6.029,13.3021,4.60076,2470.624,2023-1-29T10:06:47Z
2023-01-29T08:03:21Z,42.805,6.029,13.3021,4.60076,2470.637,2023-1-29T10:09:50Z
2023-01-29T08:06:25Z,42.805,6.029,13.3023,4.60076,2470.646,2023-1-29T10:12:53Z
2023-01-29T08:09:28Z,42.805,6.029,13.3024,4.60075,2470.577,2023-1-29T10:15:56Z
2023-01-29T08:12:31Z,42.805,6.029,13.3024,4.60075,2470.637,2023-1-29T10:18:59Z
2023-01-29T08:15:34Z,42.805,6.029,13.3021,4.60075,2470.624,2023-1-29T10:22:03Z
2023-01-29T08:18:37Z,42.805,6.029,13.3021,4.60074,2470.6,2023-1-29T10:25:06Z
2023-01-29T08:21:40Z,42.805,6.029,13.3020,4.60075,2470.624,2023-1-29T10:28:09Z
2023-01-29T08:24:43Z,42.805,6.029,13.3015,4.60077,2470.646,2023-1-29T10:31:12Z
2023-01-29T08:27:46Z,42.805,6.029,13.3024,4.60076,2470.637,2023-1-29T10:34:15Z
2023-01-29T08:30:49Z,42.805,6.029,13.3022,4.60074,2470.646,2023-1-29T10:37:18Z
2023-01-29T08:33:52Z,42.805,6.029,13.3025,4.60076,2470.624,2023-1-29T10:40:21Z
2023-01-29T08:36:55Z,42.805,6.029,13.3021,4.60075,2470.6,2023-1-29T10:43:24Z
2023-01-29T08:39:59Z,42.805,6.029,13.3021,4.60075,2470.637,2023-1-29T10:46:27Z
2023-01-29T08:43:02Z,42.805,6.029,13.3022,4.60077,2470.624,2023-1-29T10:49:30Z
2023-01-29T08:46:05Z,42.805,6.029,13.3026,4.60074,2470.624,2023-1-29T10:52:33Z
2023-01-29T08:49:08Z,42.805,6.029,13.3028,4.60079,2470.646,2023-1-29T10:55:37Z
2023-01-29T08:52:11Z,42.805,6.029,13.3018,4.60076,2470.646,2023-1-29T10:58:40Z
2023-01-29T08:55:14Z,42.805,6.029,13.3022,4.60077,2470.6,2023-1-29T11:01:43Z
2023-01-29T08:58:17Z,42.805,6.029,13.3021,4.60076,2470.646,2023-1-29T11:04:46Z
2023-01-29T09:01:20Z,42.805,6.029,13.3021,4.60077,2470.646,2023-1-29T11:07:49Z
2023-01-29T09:04:23Z,42.805,6.029,13.3021,4.60076,2470.67,2023-1-29T11:10:52Z
2023-01-29T09:07:26Z,42.805,6.029,13.3025,4.60077,2470.637,2023-1-29T11:13:55Z
2023-01-29T09:10:29Z,42.805,6.029,13.3027,4.60075,2470.637,2023-1-29T11:16:58Z
2023-01-29T09:13:32Z,42.805,6.029,13.3021,4.60074,2470.624,2023-1-29T11:20:01Z
2023-01-29T09:16:36Z,42.805,6.029,13.3024,4.60076,2470.684,2023-1-29T11:23:04Z
2023-01-29T09:19:39Z,42.805,6.029,13.3026,4.60076,2470.646,2023-1-29T11:26:07Z
2023-01-29T09:22:42Z,42.805,6.029,13.3024,4.60077,2470.646,2023-1-29T11:29:11Z
2023-01-29T09:25:45Z,42.805,6.029,13.3022,4.60077,2470.624,2023-1-29T11:32:14Z
2023-01-29T09:28:48Z,42.805,6.029,13.3024,4.60075,2470.67,2023-1-29T11:35:17Z
2023-01-29T09:31:51Z,42.805,6.029,13.3023,4.60075,2470.646,2023-1-29T11:38:20Z
2023-01-29T09:34:54Z,42.805,6.029,13.3028,4.60076,2470.646,2023-1-29T11:41:23Z
2023-01-29T09:37:57Z,42.805,6.029,13.3027,4.60076,2470.646,2023-1-29T11:44:26Z
2023-01-29T09:41:00Z,42.805,6.029,13.3026,4.60075,2470.646,2023-1-29T11:47:29Z
2023-01-29T09:44:03Z,42.805,6.029,13.3021,4.60075,2470.646,2023-1-29T11:50:32Z
2023-01-29T09:47:06Z,42.805,6.029,13.3026,4.60075,2470.646,2023-1-29T11:53:35Z
2023-01-29T09:50:10Z,42.805,6.029,13.3026,4.60074,2470.661,2023-1-29T11:56:38Z
2023-01-29T09:53:13Z,42.805,6.029,13.3024,4.60074,2470.661,2023-1-29T11:59:41Z
2023-01-29T09:56:16Z,42.805,6.029,13.3023,4.60077,2470.684,2023-1-29T12:02:45Z
2023-01-29T09:59:19Z,42.805,6.029,13.3025,4.60075,2470.693,2023-1-29T12:05:48Z
2023-01-29T10:02:22Z,42.805,6.029,13.3024,4.60074,2470.693,2023-1-29T12:08:51Z
2023-01-29T10:05:25Z,42.805,6.029,13.3022,4.60075,2470.707,2023-1-29T12:11:54Z
2023-01-29T10:08:28Z,42.805,6.029,13.3020,4.60075,2470.707,2023-1-29T12:14:57Z
2023-01-29T10:11:31Z,42.805,6.029,13.3022,4.60075,2470.67,2023-1-29T12:18:00Z
2023-01-29T10:14:34Z,42.805,6.029,13.3024,4.60077,2470.684,2023-1-29T12:21:03Z
2023-01-29T10:17:37Z,42.805,6.029,13.3023,4.60074,2470.684,2023-1-29T12:24:06Z
2023-01-29T10:20:40Z,42.805,6.029,13.3024,4.60074,2470.693,2023-1-29T12:27:09Z
2023-01-29T10:23:44Z,42.805,6.029,13.3023,4.60075,2470.67,2023-1-29T12:30:12Z
2023-01-29T10:26:47Z,42.805,6.029,13.3022,4.60075,2470.693,2023-1-29T12:33:15Z
2023-01-29T10:29:50Z,42.805,6.029,13.3022,4.60074,2470.684,2023-1-29T12:36:19Z
2023-01-29T10:32:53Z,42.805,6.029,13.3019,4.60076,2470.661,2023-1-29T12:39:22Z
2023-01-29T10:35:56Z,42.805,6.029,13.3022,4.60076,2470.693,2023-1-29T12:42:25Z
2023-01-29T10:38:59Z,42.805,6.029,13.3024,4.60074,2470.67,2023-1-29T12:45:28Z
2023-01-29T10:42:02Z,42.805,6.029,13.3022,4.60076,2470.693,2023-1-29T12:48:31Z
2023-01-29T10:45:05Z,42.805,6.029,13.3029,4.60074,2470.693,2023-1-29T12:51:34Z
2023-01-29T10:48:08Z,42.805,6.029,13.3023,4.60076,2470.693,2023-1-29T12:54:37Z
2023-01-29T10:51:11Z,42.805,6.029,13.3026,4.60077,2470.717,2023-1-29T12:57:40Z
2023-01-29T10:54:14Z,42.805,6.029,13.3024,4.60075,2470.717,2023-1-29T13:00:43Z
2023-01-29T10:57:18Z,42.805,6.029,13.3024,4.60077,2470.693,2023-1-29T13:03:46Z
2023-01-29T11:00:21Z,42.805,6.029,13.3024,4.60074,2470.693,2023-1-29T13:06:49Z
2023-01-29T11:03:24Z,42.805,6.029,13.3025,4.60075,2470.693,2023-1-29T13:09:53Z
2023-01-29T11:06:27Z,42.805,6.029,13.3023,4.60075,2470.693,2023-1-29T13:12:56Z
2023-01-29T11:09:30Z,42.805,6.029,13.3024,4.60076,2470.754,2023-1-29T13:15:59Z
2023-01-29T11:12:33Z,42.805,6.029,13.3020,4.60076,2470.693,2023-1-29T13:19:02Z
2023-01-29T11:15:36Z,42.805,6.029,13.3027,4.60075,2470.73,2023-1-29T13:22:05Z
2023-01-29T11:18:39Z,42.805,6.029,13.3024,4.60076,2470.717,2023-1-29T13:25:08Z
2023-01-29T11:21:42Z,42.805,6.029,13.3024,4.60076,2470.679,2023-1-29T13:28:11Z
2023-01-29T11:24:45Z,42.805,6.029,13.3025,4.60074,2470.693,2023-1-29T13:31:14Z
2023-01-29T11:27:48Z,42.805,6.029,13.3021,4.60076,2470.707,2023-1-29T13:34:17Z
2023-01-29T11:30:51Z,42.805,6.029,13.3023,4.60074,2470.717,2023-1-29T13:37:20Z
2023-01-29T11:33:55Z,42.805,6.029,13.3024,4.60074,2470.73,2023-1-29T13:40:23Z
2023-01-29T11:36:58Z,42.805,6.029,13.3023,4.60077,2470.73,2023-1-29T13:43:26Z
2023-01-29T11:40:01Z,42.805,6.029,13.3024,4.60075,2470.73,2023-1-29T13:46:30Z
2023-01-29T11:43:04Z,42.805,6.029,13.3021,4.60074,2470.693,2023-1-29T13:49:33Z
2023-01-29T11:46:07Z,42.805,6.029,13.3021,4.60076,2470.73,2023-1-29T13:52:36Z
2023-01-29T11:49:10Z,42.805,6.029,13.3023,4.60076,2470.74,2023-1-29T13:55:39Z
2023-01-29T11:52:13Z,42.805,6.029,13.3021,4.60075,2470.73,2023-1-29T13:58:42Z
2023-01-29T11:55:16Z,42.805,6.029,13.3021,4.60077,2470.717,2023-1-29T14:01:45Z
2023-01-29T11:58:19Z,42.805,6.029,13.3022,4.60075,2470.693,2023-1-29T14:04:48Z
2023-01-29T12:01:22Z,42.805,6.029,13.3021,4.60076,2470.73,2023-1-29T14:07:51Z
2023-01-29T12:04:25Z,42.805,6.029,13.3021,4.60074,2470.67,2023-1-29T14:10:54Z
2023-01-29T12:07:29Z,42.805,6.029,13.3026,4.60077,2470.717,2023-1-29T14:13:57Z
2023-01-29T12:10:32Z,42.805,6.029,13.3023,4.60075,2470.754,2023-1-29T14:17:00Z
2023-01-29T12:13:35Z,42.805,6.029,13.3024,4.60075,2470.74,2023-1-29T14:20:04Z
2023-01-29T12:16:38Z,42.805,6.029,13.3023,4.60075,2470.73,2023-1-29T14:23:07Z
2023-01-29T12:19:41Z,42.805,6.029,13.3023,4.60075,2470.693,2023-1-29T14:26:10Z
2023-01-29T12:22:44Z,42.805,6.029,13.3020,4.60074,2470.74,2023-1-29T14:29:13Z
2023-01-29T12:25:47Z,42.805,6.029,13.3023,4.60074,2470.74,2023-1-29T14:32:16Z
2023-01-29T12:28:50Z,42.805,6.029,13.3021,4.60074,2470.73,2023-1-29T14:35:19Z
2023-01-29T12:31:53Z,42.805,6.029,13.3021,4.60074,2470.754,2023-1-29T14:38:22Z
2023-01-29T12:34:56Z,42.805,6.029,13.3022,4.60075,2470.73,2023-1-29T14:41:25Z
2023-01-29T12:37:59Z,42.805,6.029,13.3021,4.60075,2470.73,2023-1-29T14:44:28Z
2023-01-29T12:41:03Z,42.805,6.029,13.3024,4.60074,2470.693,2023-1-29T14:47:31Z
2023-01-29T12:44:06Z,42.805,6.029,13.3021,4.60074,2470.74,2023-1-29T14:50:35Z
2023-01-29T12:47:09Z,42.805,6.029,13.3023,4.60074,2470.73,2023-1-29T14:53:38Z
2023-01-29T12:50:12Z,42.805,6.029,13.3021,4.60074,2470.73,2023-1-29T14:56:41Z
2023-01-29T12:53:15Z,42.805,6.029,13.3022,4.60074,2470.754,2023-1-29T14:59:44Z
2023-01-29T12:56:18Z,42.805,6.029,13.3023,4.60074,2470.74,2023-1-29T15:02:47Z
2023-01-29T12:59:21Z,42.805,6.029,13.3024,4.60074,2470.74,2023-1-29T15:05:50Z
2023-01-29T13:02:24Z,42.805,6.029,13.3024,4.60074,2470.754,2023-1-29T15:08:53Z
2023-01-29T13:05:27Z,42.805,6.029,13.3024,4.60074,2470.717,2023-1-29T15:11:56Z
2023-01-29T13:08:30Z,42.805,6.029,13.3019,4.60074,2470.717,2023-1-29T15:14:59Z
2023-01-29T13:11:33Z,42.805,6.029,13.3022,4.60074,2470.73,2023-1-29T15:18:02Z
2023-01-29T13:14:36Z,42.805,6.029,13.3023,4.60073,2470.693,2023-1-29T15:21:05Z
2023-01-29T13:17:40Z,42.805,6.029,13.3023,4.60074,2470.717,2023-1-29T15:24:08Z
2023-01-29T13:20:43Z,42.805,6.029,13.3021,4.60074,2470.717,2023-1-29T15:27:12Z
2023-01-29T13:23:46Z,42.805,6.029,13.3024,4.60074,2470.707,2023-1-29T15:30:15Z
2023-01-29T13:26:49Z,42.805,6.029,13.3020,4.60074,2470.754,2023-1-29T15:33:18Z
2023-01-29T13:29:52Z,42.805,6.029,13.3021,4.60074,2470.693,2023-1-29T15:36:21Z
2023-01-29T13:32:55Z,42.805,6.029,13.3026,4.60075,2470.717,2023-1-29T15:39:24Z
2023-01-29T13:35:58Z,42.805,6.029,13.3023,4.60074,2470.74,2023-1-29T15:42:27Z
2023-01-29T13:39:01Z,42.805,6.029,13.3022,4.60073,2470.717,2023-1-29T15:45:30Z
2023-01-29T13:42:04Z,42.805,6.029,13.3025,4.60075,2470.717,2023-1-29T15:48:33Z
2023-01-29T13:45:07Z,42.805,6.029,13.3024,4.60074,2470.754,2023-1-29T15:51:36Z
2023-01-29T13:48:10Z,42.805,6.029,13.3024,4.60074,2470.679,2023-1-29T15:54:39Z
2023-01-29T13:51:14Z,42.805,6.029,13.3019,4.60075,2470.717,2023-1-29T15:57:42Z
2023-01-29T13:54:17Z,42.805,6.029,13.3021,4.60074,2470.707,2023-1-29T16:00:46Z
2023-01-29T13:57:20Z,42.805,6.029,13.3023,4.60073,2470.707,2023-1-29T16:03:49Z
2023-01-29T14:00:23Z,42.805,6.029,13.3022,4.60075,2470.717,2023-1-29T16:06:52Z
2023-01-29T14:03:26Z,42.805,6.029,13.3024,4.60074,2470.693,2023-1-29T16:09:55Z
2023-01-29T14:06:29Z,42.805,6.029,13.3021,4.60074,2470.679,2023-1-29T16:12:58Z
2023-01-29T14:09:32Z,42.805,6.029,13.3019,4.60074,2470.73,2023-1-29T16:16:01Z
2023-01-29T14:12:35Z,42.805,6.029,13.3024,4.60074,2470.693,2023-1-29T16:19:04Z
2023-01-29T14:15:38Z,42.805,6.029,13.3019,4.60074,2470.67,2023-1-29T16:22:07Z
2023-01-29T14:18:41Z,42.805,6.029,13.3022,4.60074,2470.707,2023-1-29T16:25:10Z
2023-01-29T14:21:44Z,42.805,6.029,13.3023,4.60074,2470.73,2023-1-29T16:28:13Z
2023-01-29T14:24:48Z,42.805,6.029,13.3023,4.60074,2470.707,2023-1-29T16:31:16Z
2023-01-29T14:27:51Z,42.805,6.029,13.3023,4.60073,2470.717,2023-1-29T16:34:20Z
2023-01-29T14:30:54Z,42.805,6.029,13.3021,4.60074,2470.693,2023-1-29T16:37:23Z
2023-01-29T14:33:57Z,42.805,6.029,13.3018,4.60074,2470.73,2023-1-29T16:40:26Z
2023-01-29T14:37:00Z,42.805,6.029,13.3023,4.60074,2470.717,2023-1-29T16:43:29Z
2023-01-29T14:40:03Z,42.805,6.029,13.3021,4.60073,2470.707,2023-1-29T16:46:32Z
2023-01-29T14:43:06Z,42.805,6.029,13.3024,4.60074,2470.693,2023-1-29T16:49:35Z
2023-01-29T14:46:09Z,42.805,6.029,13.3023,4.60074,2470.707,2023-1-29T16:52:38Z
2023-01-29T14:49:12Z,42.805,6.029,13.3019,4.60074,2470.693,2023-1-29T16:55:41Z
2023-01-29T14:52:15Z,42.805,6.029,13.3018,4.60074,2470.717,2023-1-29T16:58:44Z
2023-01-29T14:55:18Z,42.805,6.029,13.3021,4.60074,2470.684,2023-1-29T17:01:47Z
2023-01-29T14:58:22Z,42.805,6.029,13.3024,4.60074,2470.67,2023-1-29T17:04:50Z
2023-01-29T15:01:25Z,42.805,6.029,13.3024,4.60073,2470.67,2023-1-29T17:07:54Z
2023-01-29T15:04:28Z,42.805,6.029,13.3022,4.60073,2470.717,2023-1-29T17:10:57Z
2023-01-29T15:07:31Z,42.805,6.029,13.3019,4.60073,2470.693,2023-1-29T17:14:00Z
2023-01-29T15:10:34Z,42.805,6.029,13.3026,4.60073,2470.693,2023-1-29T17:17:03Z